Weather History for Budapest Ferihegy, Hungary

Change the Weather History Date:

Saturday, November 5, 2011

  Actual Average Record
Temperature  
Mean Temperature 52 °F -  
Max Temperature 60 °F 44 °F 68 °F (2014)
Min Temperature 44 °F 31 °F 24 °F (2001)
Degree Days  
Heating Degree Days 13    
Growing Degree Days 2 (Base 50)    
Moisture  
Dew Point 40 °F    
Average Humidity 64    
Maximum Humidity 76    
Minimum Humidity 48    
Precipitation  
Precipitation 0.00 in - - ()
Sea Level Pressure  
Sea Level Pressure 30.06 in    
Wind  
Wind Speed 8 mph ()    
Max Wind Speed 14 mph    
Max Gust Speed -    
Visibility 4.3 miles    
Events      
Averages and records for this station are not official NWS values.
T = Trace of Precipitation, MM = Missing Value Source: Averaged Metar Reports

Daily Weather History Graph

Daily Weather History Graph

Search for Another Location

Airport:

Trip Planner

Search our weather history database for the weather conditions in past years. The results will help you decide how hot, cold, wet, or windy it might be!

Date:

Astronomy

Nov. 05, 2011 Rise Set
Actual Time 6:31 AM CET 4:20 PM CET
Civil Twilight 5:59 AM CET 4:53 PM CET
Nautical Twilight 5:22 AM CET 5:29 PM CET
Astronomical Twilight 4:47 AM CET 6:05 PM CET
Moon 1:47 PM CET (11/5) 1:04 AM CET (11/5)
Length of Visible Light 10h 53m
Length of Day
9h 48m
Waxing Gibbous, 76% of the Moon is Illuminated
Nov 5
Waxing Gibbous
Nov 10
Full
Nov 18
Last Quarter
Nov 25
New
Dec 2
First Quarter

Hourly Weather History & Observations

Time (CET) Temp. Windchill Dew Point Humidity Pressure Visibility Wind Dir Wind Speed Gust Speed Precip Events Conditions
12:00 AM 50.0 °F - 41.0 °F 71% 30.04 in 3.1 mi East 9.2 mph - N/A   Haze
12:30 AM 50.0 °F - 39.2 °F 66% 30.04 in 3.1 mi East 9.2 mph - N/A   Haze
1:00 AM 50.0 °F - 41.0 °F 71% 30.04 in 3.1 mi East 8.1 mph - N/A   Haze
1:30 AM 50.0 °F - 41.0 °F 71% 30.04 in 3.1 mi East 8.1 mph - N/A   Haze
2:00 AM 50.0 °F - 39.2 °F 66% 30.04 in 3.7 mi East 5.8 mph - N/A   Mostly Cloudy
2:30 AM 50.0 °F - 39.2 °F 66% 30.04 in 3.7 mi East 6.9 mph - N/A   Mostly Cloudy
3:00 AM 50.0 °F - 39.2 °F 66% 30.04 in 3.7 mi East 9.2 mph - N/A   Mostly Cloudy
3:30 AM 50.0 °F - 39.2 °F 66% 30.04 in 3.7 mi East 8.1 mph - N/A   Mostly Cloudy
4:00 AM 50.0 °F - 39.2 °F 66% 30.04 in 4.3 mi East 6.9 mph - N/A   Mostly Cloudy
4:30 AM 48.2 °F - 39.2 °F 71% 30.04 in 4.3 mi East 9.2 mph - N/A   Mostly Cloudy
5:00 AM 48.2 °F - 39.2 °F 71% 30.04 in 4.3 mi East 8.1 mph - N/A   Mostly Cloudy
5:30 AM 48.2 °F - 39.2 °F 71% 30.04 in 4.3 mi East 8.1 mph - N/A   Mostly Cloudy
6:00 AM 48.2 °F - 39.2 °F 71% 30.04 in 6.2 mi East 9.2 mph - N/A   Mostly Cloudy
6:30 AM 46.4 °F 42.9 °F 37.4 °F 71% 30.04 in 6.2 mi East 6.9 mph - N/A   Mostly Cloudy
7:00 AM 44.6 °F 40.2 °F 37.4 °F 76% 30.04 in 5.0 mi East 8.1 mph - N/A   Unknown
7:30 AM 46.4 °F 43.5 °F 39.2 °F 76% 30.04 in 5.0 mi East 5.8 mph - N/A   Unknown
8:00 AM 48.2 °F - 39.2 °F 71% 30.06 in 5.0 mi East 10.4 mph - N/A   Unknown
8:30 AM 50.0 °F - 39.2 °F 66% 30.06 in 5.0 mi East 11.5 mph - N/A   Unknown
9:00 AM 50.0 °F - 39.2 °F 66% 30.06 in 5.0 mi East 10.4 mph - N/A   Unknown
9:30 AM 51.8 °F - 39.2 °F 62% 30.06 in 5.0 mi East 11.5 mph - N/A   Unknown
10:00 AM 51.8 °F - 39.2 °F 62% 30.06 in 5.0 mi East 10.4 mph - N/A   Unknown
10:30 AM 53.6 °F - 39.2 °F 58% 30.06 in 5.0 mi East 11.5 mph - N/A   Unknown
11:00 AM 55.4 °F - 39.2 °F 54% 30.06 in 5.0 mi East 11.5 mph - N/A   Unknown
11:30 AM 55.4 °F - 39.2 °F 54% 30.06 in 5.0 mi East 12.7 mph - N/A   Unknown
12:00 PM 57.2 °F - 41.0 °F 55% 30.04 in 5.0 mi East 11.5 mph - N/A   Unknown
12:30 PM 59.0 °F - 41.0 °F 51% 30.04 in 5.0 mi East 12.7 mph - N/A   Unknown
1:00 PM 59.0 °F - 41.0 °F 51% 30.04 in - East 10.4 mph - N/A   Clear
1:30 PM 60.8 °F - 41.0 °F 48% 30.04 in - East 10.4 mph - N/A   Clear
2:00 PM 60.8 °F - 41.0 °F 48% 30.04 in - East 10.4 mph - N/A   Clear
2:30 PM 60.8 °F - 41.0 °F 48% 30.04 in - East 13.8 mph - N/A   Clear
3:00 PM 60.8 °F - 41.0 °F 48% 30.04 in - East 13.8 mph - N/A   Clear
3:30 PM 59.0 °F - 41.0 °F 51% 30.04 in - East 11.5 mph - N/A   Clear
4:00 PM 57.2 °F - 41.0 °F 55% 30.04 in - East 10.4 mph - N/A   Clear
4:30 PM 53.6 °F - 41.0 °F 62% 30.04 in - East 9.2 mph - N/A   Clear
5:00 PM 53.6 °F - 41.0 °F 62% 30.06 in - East 5.8 mph - N/A   Clear
5:30 PM 51.8 °F - 39.2 °F 62% 30.06 in - East 4.6 mph - N/A   Clear
6:00 PM 50.0 °F - 39.2 °F 66% 30.06 in - East 5.8 mph - N/A   Clear
6:30 PM 51.8 °F - 41.0 °F 67% 30.06 in - East 9.2 mph - N/A   Clear
7:00 PM 51.8 °F - 39.2 °F 62% 30.09 in - East 9.2 mph - N/A   Clear
7:30 PM 51.8 °F - 39.2 °F 62% 30.09 in - East 9.2 mph - N/A   Clear
8:00 PM 50.0 °F - 39.2 °F 66% 30.09 in 5.0 mi East 8.1 mph - N/A   Unknown
8:30 PM 50.0 °F - 37.4 °F 62% 30.09 in 5.0 mi East 9.2 mph - N/A   Unknown
9:00 PM 50.0 °F - 37.4 °F 62% 30.09 in 3.7 mi ENE 9.2 mph - N/A   Unknown
9:30 PM 50.0 °F - 39.2 °F 66% 30.09 in 3.7 mi ENE 10.4 mph - N/A   Unknown
10:00 PM 48.2 °F - 39.2 °F 71% 30.09 in 3.1 mi ENE 10.4 mph - N/A   Haze
10:30 PM 48.2 °F - 39.2 °F 71% 30.09 in 3.1 mi ENE 10.4 mph - N/A   Haze
11:00 PM 46.4 °F 41.9 °F 39.2 °F 76% 30.12 in 3.1 mi ENE 9.2 mph - N/A   Haze
11:30 PM 46.4 °F 41.1 °F 39.2 °F 76% 30.12 in 2.8 mi East 11.5 mph - N/A   Haze